• In Österreich
  • Länderverzeichnis
  • Für 7 Tage
  • Wassertemperatur
  • Satellitenkarten
  • Wetterkarte
  • News
  • Widgets
  • user-avatar
    Anmelden

    Stündliche Wetter Weliko Tarnovo

    Heute, 25 Februar, Sonntag

    Zeit Temperatur Niederschläge Wind Luftdruck Luftfeuchtigkeit
    00:00 -2°C° 0,1 mm 3 m/S 736 mmHg 87%
    01:00 -2°C° 0,1 mm 3 m/S 736 mmHg 87%
    02:00 -4°C° 0,1 mm 3 m/S 736 mmHg 87%
    03:00 -4°C° 0,1 mm 3 m/S 736 mmHg 86%
    04:00 -4°C° 0,1 mm 3 m/S 736 mmHg 85%
    05:00 -5°C° 0,1 mm 3 m/S 737 mmHg 84%
    06:00 -5°C° 0 mm 3 m/S 737 mmHg 83%
    07:00 -5°C° 0 mm 3 m/S 737 mmHg 81%
    08:00 -5°C° 0 mm 3 m/S 737 mmHg 79%
    09:00 -5°C° 0 mm 3 m/S 738 mmHg 75%
    10:00 -4°C° 0 mm 3 m/S 738 mmHg 71%
    11:00 -2°C° 0 mm 3 m/S 738 mmHg 67%
    12:00 -2°C° 0 mm 3 m/S 738 mmHg 66%
    13:00 -2°C° 0 mm 3 m/S 738 mmHg 66%
    14:00 -1°C° 0 mm 3 m/S 738 mmHg 65%
    15:00 -2°C° 0,1 mm 3 m/S 738 mmHg 68%
    16:00 -2°C° 0,1 mm 3 m/S 738 mmHg 72%
    17:00 -4°C° 0,1 mm 3 m/S 738 mmHg 75%
    18:00 -4°C° 0,1 mm 4 m/S 738 mmHg 77%
    19:00 -4°C° 0,1 mm 4 m/S 738 mmHg 80%
    20:00 -5°C° 0,1 mm 4 m/S 738 mmHg 82%
    21:00 -5°C° 0,1 mm 4 m/S 738 mmHg 82%
    22:00 -5°C° 0,1 mm 4 m/S 738 mmHg 81%
    23:00 -5°C° 0,1 mm 4 m/S 738 mmHg 81%

    Morgen, 26 Februar, Montag

    Zeit Temperatur Niederschläge Wind Luftdruck Luftfeuchtigkeit
    00:00 -5°C° 0,2 mm 4 m/S 738 mmHg 83%
    01:00 -7°C° 0,2 mm 5 m/S 738 mmHg 84%
    02:00 -7°C° 0,2 mm 5 m/S 737 mmHg 85%
    03:00 -7°C° 0,5 mm 5 m/S 737 mmHg 86%
    04:00 -7°C° 0,5 mm 5 m/S 737 mmHg 88%
    05:00 -8°C° 0,5 mm 5 m/S 736 mmHg 89%
    06:00 -9°C° 0,6 mm 6 m/S 736 mmHg 89%
    07:00 -9°C° 0,6 mm 6 m/S 736 mmHg 89%
    08:00 -9°C° 0,6 mm 6 m/S 735 mmHg 89%
    09:00 -9°C° 0,6 mm 7 m/S 735 mmHg 89%
    10:00 -9°C° 0,6 mm 7 m/S 735 mmHg 88%
    11:00 -9°C° 0,6 mm 7 m/S 735 mmHg 87%
    12:00 -9°C° 0,8 mm 7 m/S 734 mmHg 88%
    13:00 -9°C° 0,8 mm 7 m/S 734 mmHg 89%
    14:00 -9°C° 0,8 mm 7 m/S 733 mmHg 89%
    15:00 -11°C° 1,1 mm 7 m/S 733 mmHg 90%
    16:00 -11°C° 1,1 mm 7 m/S 733 mmHg 92%
    17:00 -10°C° 1,1 mm 6 m/S 733 mmHg 93%
    18:00 -11°C° 1,3 mm 6 m/S 733 mmHg 93%
    19:00 -11°C° 1,3 mm 6 m/S 733 mmHg 94%
    20:00 -12°C° 1,3 mm 6 m/S 733 mmHg 94%
    21:00 -12°C° 0,9 mm 5 m/S 733 mmHg 94%
    22:00 -12°C° 0,9 mm 5 m/S 733 mmHg 94%
    23:00 -12°C° 0,9 mm 5 m/S 733 mmHg 94%

    übermorgen, 27 Februar, Dienstag

    Zeit Temperatur Niederschläge Wind Luftdruck Luftfeuchtigkeit
    00:00 -11°C° 0,6 mm 4 m/S 733 mmHg 94%
    01:00 -11°C° 0,6 mm 4 m/S 733 mmHg 94%
    02:00 -12°C° 0,6 mm 3 m/S 733 mmHg 94%
    03:00 -12°C° 0,4 mm 3 m/S 733 mmHg 94%
    04:00 -12°C° 0,4 mm 3 m/S 733 mmHg 94%
    05:00 -12°C° 0,4 mm 3 m/S 733 mmHg 94%
    06:00 -12°C° 0,2 mm 3 m/S 733 mmHg 94%
    07:00 -10°C° 0,2 mm 2 m/S 734 mmHg 93%
    08:00 -10°C° 0,2 mm 2 m/S 734 mmHg 93%
    09:00 -10°C° 0,1 mm 2 m/S 735 mmHg 91%
    10:00 -9°C° 0,1 mm 2 m/S 735 mmHg 89%
    11:00 -8°C° 0,1 mm 2 m/S 736 mmHg 87%
    12:00 -7°C° 0 mm 2 m/S 736 mmHg 87%
    13:00 -7°C° 0 mm 2 m/S 735 mmHg 86%
    14:00 -6°C° 0 mm 2 m/S 735 mmHg 86%
    15:00 -6°C° 0 mm 2 m/S 736 mmHg 88%
    16:00 -6°C° 0 mm 2 m/S 736 mmHg 89%
    17:00 -7°C° 0 mm 2 m/S 736 mmHg 91%
    18:00 -7°C° 0,1 mm 2 m/S 737 mmHg 92%
    19:00 -8°C° 0,1 mm 2 m/S 737 mmHg 94%
    20:00 -8°C° 0,1 mm 1 m/S 738 mmHg 95%
    21:00 -9°C° 0 mm 1 m/S 738 mmHg 95%
    22:00 -9°C° 0 mm 1 m/S 738 mmHg 94%
    23:00 -10°C° 0 mm 1 m/S 739 mmHg 94%

    28 Februar, Mittwoch

    Zeit Temperatur Niederschläge Wind Luftdruck Luftfeuchtigkeit
    00:00 -10°C° 0 mm 1 m/S 739 mmHg 94%
    01:00 -11°C° 0 mm 1 m/S 739 mmHg 94%
    02:00 -11°C° 0 mm 1 m/S 739 mmHg 94%
    03:00 -11°C° 0 mm 1 m/S 739 mmHg 94%
    04:00 -11°C° 0 mm 1 m/S 739 mmHg 94%
    05:00 -11°C° 0 mm 1 m/S 739 mmHg 94%
    06:00 -10°C° 0,1 mm 1 m/S 739 mmHg 94%
    07:00 -10°C° 0,1 mm 1 m/S 739 mmHg 94%
    08:00 -10°C° 0,1 mm 1 m/S 739 mmHg 94%
    09:00 -10°C° 0,4 mm 2 m/S 739 mmHg 93%
    10:00 -9°C° 0,4 mm 2 m/S 739 mmHg 93%
    11:00 -8°C° 0,4 mm 2 m/S 739 mmHg 92%
    12:00 -9°C° 0,5 mm 3 m/S 738 mmHg 93%
    13:00 -9°C° 0,5 mm 3 m/S 738 mmHg 93%
    14:00 -8°C° 0,5 mm 3 m/S 738 mmHg 93%
    15:00 -9°C° 0,8 mm 3 m/S 738 mmHg 94%
    16:00 -9°C° 0,8 mm 3 m/S 738 mmHg 94%
    17:00 -9°C° 0,8 mm 2 m/S 739 mmHg 95%
    18:00 -9°C° 0,4 mm 2 m/S 739 mmHg 95%
    19:00 -10°C° 0,4 mm 2 m/S 740 mmHg 95%
    20:00 -10°C° 0,4 mm 2 m/S 740 mmHg 95%
    21:00 -12°C° 0,1 mm 2 m/S 741 mmHg 95%
    22:00 -12°C° 0,1 mm 2 m/S 741 mmHg 94%
    23:00 -12°C° 0,1 mm 2 m/S 741 mmHg 94%

    1 März, Donnerstag

    Zeit Temperatur Niederschläge Wind Luftdruck Luftfeuchtigkeit
    00:00 -13°C° 0 mm 2 m/S 742 mmHg 93%
    01:00 -13°C° 0 mm 2 m/S 742 mmHg 93%
    02:00 -12°C° 0 mm 1 m/S 742 mmHg 92%
    03:00 -12°C° 0 mm 1 m/S 742 mmHg 92%
    04:00 -13°C° 0 mm 1 m/S 742 mmHg 91%
    05:00 -13°C° 0 mm 1 m/S 742 mmHg 90%
    06:00 -13°C° 0 mm 1 m/S 743 mmHg 89%
    07:00 -12°C° 0 mm 1 m/S 743 mmHg 87%
    08:00 -12°C° 0 mm 1 m/S 743 mmHg 86%
    09:00 -9°C° 0 mm 1 m/S 743 mmHg 83%
    10:00 -7°C° 0 mm 1 m/S 743 mmHg 80%
    11:00 -4°C° 0 mm 1 m/S 743 mmHg 76%
    12:00 -3°C° 0 mm 1 m/S 742 mmHg 77%
    13:00 -2°C° 0 mm 1 m/S 742 mmHg 77%
    14:00 -2°C° 0 mm 1 m/S 741 mmHg 78%
    15:00 -2°C° 0 mm 1 m/S 741 mmHg 81%
    16:00 -3°C° 0 mm 1 m/S 741 mmHg 84%
    17:00 -3°C° 0 mm 1 m/S 740 mmHg 87%
    18:00 -4°C° 0 mm 1 m/S 741 mmHg 87%
    19:00 -7°C° 0 mm 1 m/S 741 mmHg 86%
    20:00 -8°C° 0 mm 1 m/S 741 mmHg 86%
    21:00 -8°C° 0 mm 1 m/S 741 mmHg 85%
    22:00 -8°C° 0 mm 1 m/S 741 mmHg 84%
    23:00 -8°C° 0 mm 1 m/S 741 mmHg 83%

    2 März, Freitag

    Zeit Temperatur Niederschläge Wind Luftdruck Luftfeuchtigkeit
    00:00 -8°C° 0 mm 1 m/S 740 mmHg 83%
    01:00 -8°C° 0 mm 1 m/S 740 mmHg 83%
    02:00 -8°C° 0 mm 1 m/S 740 mmHg 83%
    03:00 -8°C° 0 mm 1 m/S 739 mmHg 84%
    04:00 -8°C° 0 mm 1 m/S 739 mmHg 84%
    05:00 -8°C° 0 mm 1 m/S 739 mmHg 85%
    06:00 -7°C° 0 mm 1 m/S 739 mmHg 85%
    07:00 -7°C° 0 mm 1 m/S 739 mmHg 86%
    08:00 -6°C° 0 mm 1 m/S 739 mmHg 87%
    09:00 -3°C° 0 mm 1 m/S 739 mmHg 87%
    10:00 -2°C° 0 mm 1 m/S 739 mmHg 88%
    11:00 0°C° 0 mm 1 m/S 739 mmHg 89%
    12:00 0°C° 0 mm 1 m/S 738 mmHg 91%
    13:00 +1°C° 0 mm 1 m/S 738 mmHg 94%
    14:00 +1°C° 0 mm 1 m/S 737 mmHg 97%
    15:00 +1°C° 0 mm 1 m/S 737 mmHg 96%
    16:00 +1°C° 0 mm 1 m/S 737 mmHg 96%
    17:00 +1°C° 0 mm 1 m/S 737 mmHg 96%
    18:00 0°C° 0 mm 1 m/S 737 mmHg 96%
    19:00 0°C° 0 mm 1 m/S 737 mmHg 95%
    20:00 -1°C° 0 mm 1 m/S 737 mmHg 95%
    21:00 -1°C° 0 mm 1 m/S 737 mmHg 94%
    22:00 -2°C° 0 mm 1 m/S 737 mmHg 93%
    23:00 -2°C° 0 mm 1 m/S 737 mmHg 93%
    Mehr zeigen